Regional Weather Roundup
Issued by NWS

Home | Current Version | Previous Version | Text Only | Print | Product List | Glossary On
Versions: 1 2 3 4 5 6 7 8 9 10 11 12 13 14 15 16 17 18 19 20 21 22 23 24 25 26 27 28 29 30 31 32 33 34 35 36 37 38 39 40 41 42 43 44 45 46 47 48 49 50
000
ASUS44 KOUN 172210
RWROK

WEATHER ROUNDUP FOR OKLAHOMA
NATIONAL WEATHER SERVICE NORMAN OK
400 PM CST TUE JAN 17 2017

NOTE: "FAIR" INDICATES FEW OR NO CLOUDS BELOW 12,000 FEET WITH NO
      SIGNIFICANT WEATHER AND/OR OBSTRUCTIONS TO VISIBILITY.

OKZ001>007-009>012-014-015-017-172300-
NORTHWEST OKLAHOMA AND THE PANHANDLE

CITY           SKY/WX    TMP DP  RH WIND       PRES   REMARKS
GAGE           SUNNY     55  32  41 W5        30.09S
GUYMON         SUNNY     52  35  52 W8        30.05F
$$

OKZ016-021>023-033>039-044-045-172300-
SOUTHWEST OKLAHOMA

CITY           SKY/WX    TMP DP  RH WIND       PRES   REMARKS
LAWTON/REGL    PTSUNNY   53  35  50 N8        30.11F
LAWTON/FT SILL PTSUNNY   53  36  52 N7        30.10S
FREDERICK      CLOUDY    52  37  56 CALM      30.11R
CLINTON        SUNNY     55  28  35 N3        30.11S
HOBART         SUNNY     55  33  43 E6        30.12R
ALTUS AFB      PTSUNNY   54  31  41 E6        30.12R
$$

OKZ018>020-024>031-172300-
CENTRAL OKLAHOMA

CITY           SKY/WX    TMP DP  RH WIND       PRES   REMARKS
OKLAHOMA CITY  MOSUNNY   54  27  35 NE5       30.12R
OKC/WILEY POST SUNNY     53  32  44 N3        30.12S
OKC/TINKER AFB SUNNY     55  31  40 NE5       30.11R
STILLWATER     SUNNY     55  27  34 CALM      30.12S
GUTHRIE        SUNNY     54  30  40 VRB3      30.12R
$$

OKZ008-013-054>072-172300-
NORTHEAST OKLAHOMA

CITY           SKY/WX    TMP DP  RH WIND       PRES   REMARKS
TULSA          MOSUNNY   51  38  60 VRB3      30.14F
TULSA/JONES    SUNNY     51  37  58 VRB3      30.15S
PONCA CITY     SUNNY     51  30  44 NW5       30.11F
BARTLESVILLE   SUNNY     49  36  61 SE5       30.15R
MUSKOGEE       MOSUNNY   47  37  68 VRB3      30.17R
$$

OKZ032-040>043-046>053-073>077-172300-
SOUTH CENTRAL/SOUTHEAST OKLAHOMA

CITY           SKY/WX    TMP DP  RH WIND       PRES   REMARKS
ARDMORE/DWNTWN CLOUDY    52  37  58 SE5       30.13R
MCALESTER      CLOUDY    49  37  63 E5        30.15R
$$





USA.gov is the U.S. government's official web portal to all federal, state and local government web resources and services.